Flag for U.S.A. Weather past 2 weeks in Garland, Texas, U.S.A.

Now
82 °F

Clear.


Feels Like: 83 °F
Forecast: 79 / 98 °F
Wind: No wind

Location: Mesquite Metro Airport

Current Time: Aug 4, 2015 at 12:54:36 AM

Latest Report: Aug 4, 2015 at 12:35 AM


Visibility: 10 mi

Pressure: 29.90 "Hg

Humidity: 54%

Dew point: 63 °F

Location of GarlandLocation

Historic Weather in Garland — Graph

°F

Garland temperature yesterday

Maximum temperature yesterday: 99 °F (at 3:50 PM)
Minimum temperature yesterday: 72 °F (at 6:15 AM)
Average temperature yesterday: 84 °F

Past Weeks' High & Low Weather Summary

 TemperatureHumidityPressure
High100 °F (Jul 30, 3:50 PM)94% (Jul 20, 5:35 AM)30.10 "Hg (Jul 20, 5:35 AM)
Low72 °F (Aug 2, 6:50 AM)20% (Aug 2, 5:50 PM)29.81 "Hg (Jul 21, 6:50 PM)
Average84 °F58%29.95 "Hg
* Reported Jul 19 11:55 PM — Aug 3 11:55 PM, Garland, Weather by CustomWeather, © 2015

Note: Actual official high and low records may vary slightly from our data, if they occured in-between our weather recording intervals... More about our weather records

Advertising

Garland weather history for previous 24 hours

 ConditionsComfort  
Time TempWeatherWind HumidityBarometerVisibility
11:55 PM
Mon, Aug 3
83 °FClear.5 mph48%29.90 "Hg10 mi
11:35 PM84 °FClear.5 mph46%29.90 "Hg10 mi
10:55 PM84 °FClear.No wind48%29.90 "Hg10 mi
10:35 PM86 °FClear.3 mph43%29.90 "Hg10 mi
10:15 PM85 °FClear.3 mph44%29.90 "Hg10 mi
9:55 PM86 °FClear.3 mph44%29.89 "Hg10 mi
9:35 PM87 °FClear.3 mph43%29.89 "Hg10 mi
8:55 PM88 °FSunny.5 mph38%29.88 "Hg10 mi
8:35 PM90 °FSunny.5 mph35%29.88 "Hg10 mi
8:15 PM91 °FSunny.5 mph35%29.87 "Hg10 mi
7:50 PM95 °FSunny.7 mph30%29.87 "Hg10 mi
6:50 PM97 °FSunny.9 mph27%29.86 "Hg10 mi
5:50 PM97 °FScattered clouds.5 mph25%29.87 "Hg10 mi
4:50 PM99 °FScattered clouds.8 mph25%29.88 "Hg10 mi
3:50 PM99 °FScattered clouds.No wind25%29.89 "Hg10 mi
2:50 PM97 °FSunny.No wind25%29.91 "Hg10 mi
1:50 PM97 °FSunny.10 mph27%29.92 "Hg10 mi
12:50 PM95 °FSunny.6 mph32%29.93 "Hg10 mi
11:50 AM93 °FSunny.3 mph36%29.94 "Hg10 mi
10:50 AM90 °FSunny.1 mph41%29.94 "Hg10 mi
9:50 AM86 °FSunny.3 mph49%29.94 "Hg10 mi
8:50 AM81 °FSunny.No wind58%29.94 "Hg10 mi
7:50 AM75 °FSunny.No wind65%29.93 "Hg10 mi
6:15 AM72 °FClear.No wind70%29.91 "Hg10 mi
5:55 AM73 °FClear.No wind67%29.90 "Hg10 mi
5:35 AM73 °FClear.No wind67%29.90 "Hg10 mi
5:15 AM73 °FClear.No wind68%29.89 "Hg10 mi
4:55 AM75 °FClear.No wind62%29.89 "Hg10 mi
4:35 AM74 °FClear.No wind64%29.89 "Hg10 mi
4:15 AM75 °FClear.No wind60%29.88 "Hg10 mi
3:55 AM75 °FClear.3 mph61%29.88 "Hg3 mi
3:35 AM75 °FClear.No wind62%29.88 "Hg10 mi
3:15 AM76 °FClear.No wind58%29.88 "Hg10 mi
2:55 AM76 °FClear.No wind57%29.88 "Hg10 mi
2:35 AM78 °FClear.No wind55%29.89 "Hg10 mi
2:15 AM78 °FClear.No wind52%29.89 "Hg10 mi
1:55 AM79 °FClear.5 mph52%29.89 "Hg10 mi
1:35 AM79 °FClear.5 mph50%29.89 "Hg10 mi
1:15 AM79 °FClear.3 mph50%29.89 "Hg10 mi
12:55 AM78 °FClear.No wind54%29.89 "Hg10 mi
12:35 AM79 °FClear.No wind50%29.89 "Hg10 mi
12:15 AM80 °FClear.No wind47%29.89 "Hg10 mi
Weather by CustomWeather, © 2015

See weather overviewHow to use our weather pages